Погода в Верхней Тойде

Россия / Воронежская область     51°25′25″N   40°18′32″E
темп.,
°C
ветер,
м/с
пор.,
м/с
влажн.,
%
обл.,
%
осадки,
мм/ч
давл.,
гПа
погр.,
м
31 июля, сб
сб3100:00+20сз3888100 0.3 1007162
03:00+18зсз34910 1.0 100856
06:00+18сз25900 0.0 1009140
09:00+24зсз34620 0.0 1009677
12:00+29сз34381 0.0 10092133
15:00+31зсз333129 0.0 10092593
18:00+30сз343326 0.0 10091440
21:00+23зсз22470 0.0 101112
1 августа, вс
вс100:00+21сз11500 0.0 101111
03:00+20ссз11521 0.0 101311
06:00+21ссз11550 0.0 101411
09:00+28ююз11381 0.0 1014471
12:00+32ю22290 0.0 10132568
15:00+33ююв32251 0.0 10122941
18:00+32ююв33290 0.0 1012774
21:00+26юв33400 0.0 101219
2 августа, пн
пн200:00+23юв33541 0.0 101234
03:00+22юв35590 0.0 101271
06:00+23ю23610 0.0 101253
09:00+29ю23410 0.0 1011481
12:00+34ююз46285 0.0 10102258
15:00+36ю78245 0.0 10093260
18:00+34ююз6827100 0.1 10081443
21:00+27ю354243 0.2 100770
3 августа, вт
вт300:00+23в11565 0.0 100711
03:00+24юз4853100 0.4 1008154
06:00+20вюв3578100 0.5 100884
09:00+24зюз61162100 0.6 1008547
12:00+27зюз4753100 0.6 1007541
15:00+32з792998 0.6 10082770
18:00+28зсз88380 0.0 10091603
21:00+21сз612540 0.0 1012544
4 августа, ср
ср400:00+17ссз3107111 0.0 1014233
03:00+15сз47790 0.0 1015125
06:00+16сз36770 0.0 1016170
09:00+23сз45430 0.0 10171082
12:00+26сз45335 0.0 10162248
15:00+29зсз352613 0.0 10153036
18:00+28сз442590 0.0 10152123
21:00+21ссз333611 0.0 101638